Location: Brompton
(51.4000°N, 0.5333°E)
Time: 07:53:30
(UTC+00:00)

Cosmos 2242 Rocket - Pass Details

Date: 11 May 2021
Orbit: 619 x 650 km, 82.5° (Epoch: 12 June)

Event Time Altitude Azimuth Distance (km) Brightness Sun altitude
Exits shadow 23:09:00 38° 125° (SE) 956 4.1 -19.8°
Maximum altitude 23:09:54 44° 93° (E) 877 4.2 -19.8°
Drops below altitude 10° 23:14:09 10° 22° (NNE) 2,026 7.0 -19.9°
Sets 23:16:29 0° 16° (NNE) 2,945 8.2 -20.0°
